IRIDIUM 33 DEB, 46972

Orbit data source: Space-Track

IRIDIUM 33 DEB, 46972 is space debris in LEO originally from a launch on Sun, 14 Sep 1997 UTC launched from the Tyuratam Missile And Space Complex (TTMTR). The debris from Iridium 33, an American commercial communications satellite, has been tracked extensively since its accidental collision with the defunct Russian satellite Cosmos 2251 in 2009. This event, occurring at high speed in low Earth orbit (LEO), generated thousands of pieces of space debris, significantly increasing the risk of further collisions. The Iridium 33 debris cloud has impacted space traffic management and orbital debris mitigation strategies, making it a subject of ongoing study in space situational awareness.

Loading next visibility...
Identifier
46972, 1997-051ACE
Orbit
LEO
Country
Flag of USUS
Related business
Manufacturer
Unknown
Mission
Spacecraft
Bus & Motor
Unknown
Mass
Unknown
Launch date (UTC)
1997-09-14 (28 years ago)
Launch vehicle
Unknown
Launch site
Tyuratam Missile And Space Complex (TTMTR)
Object type
Payload
Rocket body
Debris
Shape & HBR
Unknown shape, 0.1 m
Radar Cross Section
Small (<0.1 m²)

Expand to show TLE details & history
Last TLE update: 2 weeks ago

TLE from 2 weeks ago
0 IRIDIUM 33 DEB
1 46972U 97051ACE 25292.14463113  .00004995  00000-0  12769-2 0  9997
2 46972  86.3855  62.8917 0007334 294.5090 191.6572 14.50293738607819
Epoch: 2025-10-19T03:28Z
TLE epoch observation values (Epoch: 2025-10-19T03:28:16.129Z)
Latitude
53.79459°
Longitude
158.03521°
Altitude
738.721 km
Speed
7.488 km/s
True Right ascension
15h 51m 52s
True Declination
53° 37' 48"
Sunlit
Object was in daylight at epoch
Visualization orbit readout
Latitude
Unknown
Longitude
Unknown
Altitude
Unknown
Speed
Unknown
Apparent Right ascension
Unknown
Apparent Declination
Unknown
Sunlit
N/A
Visualization observer readout
Local Sidereal Time
09:22:26
Azimuth
Unknown
Elevation
Unknown
Doppler factor
Unknown
Orbital elements
Apogee altitude
726.838 km
Perigee altitude
716.424 km
Semi-major axis
7,099.768 km
Eccentricity
0.00073
Inclination
86.3855°
RAAN
62.8917°
Arg. of periapsis
294.509°
True anomaly
191.64023°
Mean anomaly
191.6572°
Eccentric anomaly
191.64872°
Mean motion
3.62808 °/min
Orbital period
99.23 mins
BSTAR
0.0012769
Loading maneuver chart data...
Computing Atmospheric mass density...
Loading historical data...
Loading historical data...
Loading historical data...
Loading historical data...
Loading historical data...
Loading historical data...
Loading historical data...

Documentation

Showing up to 5 results
|